User: anonymous   Login
Location: Unspecified
(0.0000°N, 0.0000°E)
Time: 18:02:30
(UTC+00:00)
Language:

USA 136 - Orbit

View from above orbital plane
View from above orbital plane
View from above satellite
View from above satellite

Ground track
Ground track

The orbit data is extracted from the following two-line orbital elements,

1 25034U 97068A   17310.56182611 0.00000000  00000-0  00000-0 0    09
2 25034  63.3779 209.8366 6203088 285.3758  17.2465  2.00597700    05
Epoch (UTC): 06 November 2017 13:29:01
Eccentricity: 0.6203088
inclination: 63.3779°
perigee height: 3705 km
apogee height: 36652 km
right ascension of ascending node: 209.8366°
argument of perigee: 285.3758°
revolutions per day: 2.00597700
mean anomaly at epoch: 17.2465°
orbit number at epoch: 0

The dashed part of the orbit path shows where the satellite is in the earth's shadow,  

DLR